Back to catalog

NanoDragon

AliveScienceSSO
NORAD 49398·PAYLOAD·🇯🇵 Japan

Launched Nov 9, 2021 from Uchinoura Space Center

Loading…

Next Passes (next 24 hours)

TLE

FreshSource: Space-Track

Epoch: Sep 14, 2026, 08:58 UTC

1 49398U 21102D   26257.37401938  .00007741  00000-0  25130-3 0  9999
2 49398  97.3115 298.4370 0006982 239.3899 120.6655 15.32199973267674

Track NanoDragon in real time with AllMySat

Download on the App Store